TimeCDT,TemperatureF,Dew PointF,Humidity,Sea Level PressureIn,VisibilityMPH,Wind Direction,Wind SpeedMPH,Gust SpeedMPH,PrecipitationIn,Events,Conditions,WindDirDegrees,DateUTC
12:55 AM,63.0,59.0,87,30.09,10.0,ENE,3.5,-,N/A,,Clear,70,2013-07-14 05:55:00
1:55 AM,64.9,60.1,84,30.09,10.0,East,4.6,-,N/A,,Clear,90,2013-07-14 06:55:00
2:55 AM,63.0,59.0,87,30.09,9.0,Calm,Calm,-,N/A,,Clear,0,2013-07-14 07:55:00
3:55 AM,60.1,57.9,93,30.09,8.0,East,3.5,-,N/A,,Clear,80,2013-07-14 08:55:00
4:55 AM,59.0,57.9,96,30.09,7.0,ENE,3.5,-,N/A,,Clear,70,2013-07-14 09:55:00
5:55 AM,62.1,60.1,93,30.09,5.0,ENE,3.5,-,N/A,,Clear,70,2013-07-14 10:55:00
6:17 AM,59.0,57.2,94,30.10,2.5,Calm,Calm,-,N/A,,Clear,0,2013-07-14 11:17:00
6:34 AM,60.8,60.8,100,30.10,3.0,ENE,3.5,-,N/A,,Clear,60,2013-07-14 11:34:00
6:55 AM,64.0,61.0,90,30.11,5.0,ENE,4.6,-,N/A,,Clear,70,2013-07-14 11:55:00
7:55 AM,69.1,63.0,81,30.12,8.0,East,5.8,-,N/A,,Clear,90,2013-07-14 12:55:00
8:55 AM,73.0,64.9,76,30.14,10.0,ESE,6.9,-,N/A,,Clear,110,2013-07-14 13:55:00
9:55 AM,77.0,64.9,66,30.14,10.0,SE,8.1,-,N/A,,Clear,140,2013-07-14 14:55:00
10:55 AM,80.1,64.9,60,30.14,10.0,SE,8.1,-,N/A,,Clear,140,2013-07-14 15:55:00
11:55 AM,80.1,63.0,56,30.14,10.0,SE,4.6,-,N/A,,Partly Cloudy,140,2013-07-14 16:55:00
12:55 PM,82.9,62.1,49,30.14,10.0,SE,8.1,-,N/A,,Mostly Cloudy,140,2013-07-14 17:55:00
1:55 PM,84.0,62.1,47,30.14,10.0,ESE,6.9,-,N/A,,Scattered Clouds,110,2013-07-14 18:55:00
2:55 PM,86.0,61.0,43,30.13,10.0,East,9.2,18.4,N/A,,Partly Cloudy,100,2013-07-14 19:55:00
3:55 PM,87.1,62.1,43,30.12,10.0,ESE,10.4,16.1,N/A,,Scattered Clouds,120,2013-07-14 20:55:00
4:55 PM,84.9,61.0,44,30.12,10.0,ESE,13.8,-,N/A,,Partly Cloudy,120,2013-07-14 21:55:00
5:55 PM,84.9,59.0,41,30.11,10.0,SE,11.5,-,N/A,,Clear,130,2013-07-14 22:55:00
6:55 PM,82.9,61.0,47,30.11,10.0,ESE,9.2,-,N/A,,Clear,120,2013-07-14 23:55:00
7:55 PM,79.0,63.0,58,30.12,10.0,ESE,5.8,-,N/A,,Clear,120,2013-07-15 00:55:00
8:55 PM,75.0,63.0,66,30.14,9.0,ESE,4.6,-,N/A,,Clear,110,2013-07-15 01:55:00
9:55 PM,73.0,63.0,71,30.15,10.0,East,3.5,-,N/A,,Clear,80,2013-07-15 02:55:00
10:55 PM,72.0,64.0,76,30.17,9.0,East,4.6,-,N/A,,Clear,80,2013-07-15 03:55:00
11:55 PM,71.1,64.0,78,30.16,10.0,Calm,Calm,-,N/A,,Clear,0,2013-07-15 04:55:00